Flag for Finland Weather past 2 weeks in Helsinki, Finland

41 °F

Partly sunny.

Feels Like: 31 °F
Forecast: 36 / 40 °F
Wind: 22 mph from Southeast

Location: Helsinki Malmi Airport

Current Time: Nov 30, 2015 at 2:17:39 PM

Latest Report: Nov 30, 2015 at 1:20 PM

Visibility: N/A

Pressure: 28.88 "Hg

Humidity: 81%

Dew point: 36 °F

Location of HelsinkiLocation

Historic Weather in Helsinki — Graph


Helsinki temperature yesterday

Maximum temperature yesterday: 41 °F (at 12:20 AM)
Minimum temperature yesterday: 37 °F (at 8:20 PM)
Average temperature yesterday: 40 °F

Past Weeks' High & Low Weather Summary

High46 °F (Nov 27, 3:50 PM)100% (Nov 15, 7:50 PM)29.92 "Hg (Nov 15, 7:50 PM)
Low19 °F (Nov 24, 12:20 AM)69% (Nov 23, 12:50 PM)28.88 "Hg (Nov 30, 12:50 PM)
Average38 °F89%29.50 "Hg
* Reported Nov 15 1:20 PM — Nov 30 1:20 PM, Helsinki, Weather by CustomWeather, © 2015

Note: Actual official high and low records may vary slightly from our data, if they occured in-between our weather recording intervals... More about our weather records


Helsinki weather history for previous 24 hours

Time TempWeatherWind HumidityBarometerVisibility
1:20 PM
Mon, Nov 30
41 °FPartly sunny.22 mph81%28.88 "HgN/A
12:50 PM41 °FPartly sunny.21 mph81%28.88 "HgN/A
12:20 PM41 °FPartly sunny.21 mph81%28.91 "HgN/A
11:50 AM41 °FPartly sunny.20 mph81%28.91 "HgN/A
11:20 AM41 °FPartly sunny.22 mph81%28.94 "HgN/A
10:50 AM41 °FPartly sunny.20 mph81%28.97 "HgN/A
10:20 AM41 °FPartly sunny.18 mph81%29.00 "HgN/A
9:50 AM41 °FPartly sunny.21 mph81%29.00 "HgN/A
9:20 AM39 °FPartly sunny.18 mph87%29.03 "HgN/A
8:50 AM41 °FPassing clouds.18 mph81%29.03 "HgN/A
8:20 AM41 °FPassing clouds.20 mph81%29.06 "HgN/A
7:50 AM41 °FPassing clouds.18 mph81%29.06 "HgN/A
7:20 AM41 °FOvercast.18 mph87%29.06 "HgN/A
6:50 AM41 °FOvercast.17 mph87%29.09 "HgN/A
6:20 AM41 °FOvercast.15 mph87%29.09 "HgN/A
5:20 AM41 °FMostly cloudy.15 mph93%29.12 "HgN/A
4:50 AM43 °FPassing clouds.13 mph87%29.12 "HgN/A
4:20 AM43 °FPassing clouds.12 mph87%29.15 "HgN/A
2:20 AM41 °FSprinkles. Passing clouds.13 mph87%29.18 "HgN/A
1:50 AM41 °FSprinkles. Passing clouds.12 mph87%29.18 "HgN/A
12:50 AM39 °FSprinkles. Overcast.14 mph93%29.21 "HgN/A
12:20 AM39 °FDrizzle. Low clouds.15 mph87%29.21 "HgN/A
11:50 PM
Sun, Nov 29
37 °FLight rain. Low clouds.18 mph93%29.21 "HgN/A
11:20 PM39 °FLight rain. Low clouds.16 mph87%29.21 "HgN/A
10:50 PM39 °FLight rain. Low clouds.16 mph93%29.21 "HgN/A
10:20 PM39 °FSprinkles. Overcast.16 mph87%29.24 "HgN/A
9:50 PM39 °FSprinkles. Overcast.17 mph87%29.24 "HgN/A
9:20 PM39 °FOvercast.17 mph87%29.24 "HgN/A
8:50 PM37 °FLight rain. Passing clouds.18 mph87%29.27 "HgN/A
8:20 PM37 °FLight rain. Passing clouds.17 mph87%29.27 "HgN/A
7:50 PM39 °FPassing clouds.20 mph81%29.30 "HgN/A
7:20 PM39 °FPassing clouds.17 mph81%29.33 "HgN/A
6:50 PM39 °FPassing clouds.15 mph81%29.33 "HgN/A
6:20 PM39 °FPassing clouds.14 mph81%29.36 "HgN/A
5:50 PM39 °FPassing clouds.14 mph87%29.36 "HgN/A
5:20 PM39 °FPassing clouds.12 mph81%29.39 "HgN/A
4:50 PM39 °FPassing clouds.10 mph87%29.39 "HgN/A
4:20 PM41 °FPassing clouds.13 mph81%29.42 "HgN/A
3:50 PM41 °FPassing clouds.12 mph81%29.42 "HgN/A
3:20 PM41 °FPartly sunny.10 mph81%29.42 "HgN/A
2:50 PM41 °FPartly sunny.10 mph81%29.42 "HgN/A
2:20 PM41 °FBroken clouds.12 mph87%29.45 "HgN/A
Weather by CustomWeather, © 2015

See weather overviewHow to use our weather pages